EW3154 Weather Reports


Display with metric or nautical units.
time (UTC)temp
F
wind
direction
speed
MPH
gust
MPH
rain 1hr
in
rain 24hr
in
rain mn
in
humidity
%
barometer
mb
20260502231600 43 138 0.0 0.0 0.00 0.00 0.00 93 1020.8
20260502230057 43 138 0.0 0.0 0.00 0.00 0.00 93 1020.8
20260502224556 44 138 0.0 0.0 0.00 0.00 0.00 92 1020.8
20260502223053 44 138 0.0 0.0 0.00 0.00 0.00 92 1020.9
20260502221552 45 138 0.0 0.0 0.00 0.00 0.00 92 1020.9
20260502220124 45 138 0.0 0.0 0.00 0.00 0.00 91 1020.9
20260502214548 46 138 0.0 0.0 0.00 0.00 0.00 90 1020.8
20260502213047 46 138 0.0 0.0 0.00 0.00 0.00 88 1020.8
20260502211547 47 138 0.0 0.0 0.00 0.00 0.00 89 1020.7
20260502210054 47 138 0.0 0.0 0.00 0.00 0.00 88 1020.7
20260502204558 48 138 0.0 0.0 0.00 0.00 0.00 86 1020.7
20260502203059 49 138 0.0 0.0 0.00 0.00 0.00 86 1020.7
20260502201546 50 138 0.0 0.0 0.00 0.00 0.00 85 1020.6
20260502200045 51 138 0.0 0.0 0.00 0.00 0.00 84 1020.6
20260502194550 51 138 0.0 0.0 0.00 0.00 0.00 83 1020.5
20260502193043 53 138 0.0 0.0 0.00 0.00 0.00 81 1020.5
20260502191544 54 138 0.0 0.0 0.00 0.00 0.00 80 1020.3
20260502190045 55 138 0.0 0.0 0.00 0.00 0.00 78 1020.3
20260502184542 56 138 0.0 0.0 0.00 0.00 0.00 76 1020.1
20260502183050 57 138 0.0 0.0 0.00 0.00 0.00 74 1019.9
20260502181539 58 138 0.0 0.0 0.00 0.00 0.00 73 1019.8
20260502163057 70 92 0.0 0.0 0.00 0.00 0.00 45 1019.7
20260502161534 70 102 0.0 0.0 0.00 0.00 0.00 42 1019.8
20260502151529 72 106 0.0 7.0 0.00 0.00 0.00 42 1020.3
20260502123011 71 112 0.0 8.0 0.00 0.00 0.00 42 1022.1
20260502121509 71 105 0.0 8.0 0.00 0.00 0.00 45 1022.2
20260502114505 71 111 0.0 8.0 0.00 0.00 0.00 46 1022.6
20260502113002 71 78 0.0 8.0 0.00 0.00 0.00 42 1022.8
20260502111600 70 119 0.0 0.0 0.00 0.00 0.00 44 1023.0
20260502110059 69 113 0.0 8.0 0.00 0.00 0.00 50 1023.1
20260502104554 69 360 0.0 4.0 0.00 0.00 0.00 45 1023.4
20260502103052 68 65 0.0 0.0 0.00 0.00 0.00 44 1023.6
20260502101550 68 123 0.0 1.0 0.00 0.00 0.00 47 1023.8
20260502091533 66 65 0.0 0.0 0.00 0.00 0.00 55 1024.7
20260502070058 57 99 0.0 0.0 0.00 0.00 0.00 70 1026.0
20260502064550 55 100 0.0 0.0 0.00 0.00 0.00 71 1026.2
20260502063046 52 98 0.0 0.0 0.00 0.00 0.00 78 1026.2
20260502061541 50 306 0.0 0.0 0.00 0.00 0.00 79 1026.3
20260502060037 48 306 0.0 0.0 0.00 0.00 0.00 86 1026.5
20260502054532 45 306 0.0 0.0 0.00 0.00 0.00 89 1026.6
20260502053028 43 306 0.0 0.0 0.00 0.00 0.00 95 1026.7
20260502051527 40 306 0.0 0.0 0.00 0.00 0.00 97 1026.8
20260502050019 38 306 0.0 0.0 0.00 0.00 0.00 99 1026.8
20260502044516 35 306 0.0 0.0 0.00 0.00 0.00 98 1026.7
20260502043011 33 13 0.0 0.0 0.00 0.00 0.00 97 1026.7
20260502041510 33 13 0.0 0.0 0.00 0.00 0.00 96 1026.7
20260502040009 34 13 0.0 0.0 0.00 0.00 0.00 96 1026.6
20260502034507 34 13 0.0 0.0 0.00 0.00 0.00 97 1026.6
20260502033012 34 13 0.0 0.0 0.00 0.00 0.00 96 1026.6
20260502031505 34 313 0.0 0.0 0.00 0.00 0.00 96 1026.5
20260502030003 34 313 0.0 0.0 0.00 0.00 0.00 96 1026.7
20260502024508 34 313 0.0 0.0 0.00 0.00 0.00 96 1026.6
20260502023002 34 313 0.0 0.0 0.00 0.00 0.00 96 1026.6
20260502021616 34 313 0.0 0.0 0.00 0.00 0.00 96 1026.7
20260502020059 35 313 0.0 0.0 0.00 0.00 0.00 95 1026.7
20260502014601 35 313 0.0 0.0 0.00 0.00 0.00 95 1026.8
20260502013058 35 325 0.0 0.0 0.00 0.00 0.00 96 1026.8
20260502011554 36 325 0.0 0.0 0.00 0.00 0.00 96 1026.9
20260502010059 36 325 0.0 0.0 0.00 0.00 0.00 95 1027.0
20260502004559 36 325 0.0 0.0 0.00 0.00 0.00 95 1027.1
20260502003048 36 202 0.0 0.0 0.00 0.00 0.00 95 1027.2
20260502001547 36 202 0.0 0.0 0.00 0.00 0.00 94 1027.4
20260502000054 37 202 0.0 0.0 0.00 0.00 0.00 94 1027.4
20260501234543 37 202 0.0 0.0 0.00 0.00 0.00 94 1027.6
20260501233042 37 202 0.0 0.0 0.00 0.00 0.00 94 1027.5